User: anonymous   Login
Location: Mount Kobau Star Party
(49.1167°N, 119.7333°W)
Time: 14:27:08
(UTC-08:00)
Language:

TSX-5 - Orbit

View from above orbital plane
View from above orbital plane
View from above satellite
View from above satellite

Ground track
Ground track

The orbit data is extracted from the following two-line orbital elements,

1 26374U 00030A   16043.49733824  .00008261  00000-0  72372-3 0  9990
2 26374  68.9311 203.6985 0655739 111.1449 256.0999 14.02430041787237
Epoch (UTC): 12 February 2016 11:56:10
Eccentricity: 0.0655739
inclination: 68.9311°
perigee height: 409 km
apogee height: 1361 km
right ascension of ascending node: 203.6985°
argument of perigee: 111.1449°
revolutions per day: 14.02430041
mean anomaly at epoch: 256.0999°
orbit number at epoch: 78723

The dashed part of the orbit path shows where the satellite is in the earth's shadow,  

DLR